Zurück zum Katalog

USA 437

AktivMilitärVLEO
NORAD 61660·PAYLOAD·🇺🇸 United States

Gestartet Oct 24, 2024 von Vandenberg Space Force Base

Loading…

Nächste Überflüge (nächste 24 Stunden)

TLE

VeraltetSource: Mike McCants

Epoche: Aug 2, 2026, 21:46 UTC

1 61660U 24192S   26214.90729592 0.00000000  00000-0  00000-0 0    08
2 61660  70.0160 134.6442 0003000  42.9103 317.0896 14.96713219    08

Verfolge USA 437 in Echtzeit mit AllMySat

Download on the App Store